Regional Weather Roundup
Issued by NWS Charleston, SC

Home | Current Version | Previous Version | Text Only | Print | Product List | Glossary On
Versions: 1 2 3 4 5 6 7 8 9 10 11 12 13 14 15 16 17 18 19 20 21 22 23 24 25 26 27 28 29 30 31 32 33 34 35 36 37 38 39 40 41 42 43 44 45 46 47 48 49 50
000
ASUS42 KCHS 210027
RWRCHS

Regional Weather Roundup
National Weather Service Charleston SC
800 PM EDT TUE AUG 20 2019

NOTE: "fair" indicates few or no clouds below 12,000 feet with no
significant weather and/or obstructions to visibility.

Not all stations are quality controlled. Use data with caution,
especially dewpoint observations.

SCZ027-030-031-034>040-042>050-210100-
...Southeast South Carolina...

CITY           SKY/WX    TMP DP  RH WIND       PRES   REMARKS
N Charleston   MOCLDY    81  73  76 S7        30.09F
6HR MIN TEMP:  81; 6HR MAX TEMP:  91;

Waterfront Prk   N/A     84  77  79 S8        29.94S HX  94
Mount Pleasant FAIR      81  77  89 S5        30.09S
Johns Island   FAIR      82  75  78 S6        30.09S
Pinopolis        N/A     84  75  74 VRB3      30.02S HX  92
Moncks Corner  FAIR      81  75  83 S3        30.08F
Summerville    NOT AVBL
Beaufort MCAS  MOCLDY    84  77  79 S5        30.08F HX  94
6HR MIN TEMP:  84; 6HR MAX TEMP:  92;

Beaufort Arpt  FAIR      81  77  89 S7        30.09R
Hilton Head Is PTCLDY    82  77  83 S8        30.10F HX  91
Walterboro     FAIR      81  73  78 S7        30.10R
Allendale      FAIR      81  70  69 S6        30.08R

...Southern Midlands and Pee Dee...

CITY           SKY/WX    TMP DP  RH WIND       PRES   REMARKS
Georgetown     FAIR      81  73  78 S6        30.11S
Kingstree      NOT AVBL
Orangeburg     FAIR      84  68  58 SW13      30.09R
6HR MIN TEMP:  84; 6HR MAX TEMP:  92;

Barnwell       MOCLDY    82  70  65 S5        30.08S
Aiken          FAIR      79  73  83 S5        30.12S
Manning        FAIR      82  73  74 SW8       30.08S
Columbia       MOCLDY    84  72  67 W5        30.07S
6HR MIN TEMP:  83; 6HR MAX TEMP:  87; 6HR PCP: TRACE;

Sumter         MOCLDY    76  73  88 N8        30.08S THUNDER
6HR MIN TEMP:  76; 6HR MAX TEMP:  89; 6HR PCP:  0.03;

Florence       FAIR      84  73  69 S6        30.08S HX  90
6HR MIN TEMP:  80; 6HR MAX TEMP:  90;

Myrtle Beach   FAIR      83  77  82 S12       30.10F HX  92
N Myrtle Beach FAIR      84  76  76 S12       30.09F HX  93
6HR MIN TEMP:  84; 6HR MAX TEMP:  87;


$$

GAZ063-065-086>088-099>101-113>116-118-119-134>141-150-210100-
...Southeast Georgia...

CITY           SKY/WX    TMP DP  RH WIND       PRES   REMARKS
Savannah Arpt  MOCLDY    84  75  74 S8        30.09S HX  92
6HR MIN TEMP:  84; 6HR MAX TEMP:  93;

Hunter AAF     MOCLDY    83  75  75 SE7       30.07S HX  90
6HR MIN TEMP:  83; 6HR MAX TEMP:  90;

Fort Stewart   FAIR      82  74  75 SE3       30.07S
6HR MIN TEMP:  82; 6HR MAX TEMP:  91;

Statesboro     FAIR      82  73  73 SE5       30.09R
Sylvania       FAIR      80  73  79 S3        30.10S
Claxton        FAIR      84  75  75 S3        30.09R HX  92
Millen         FAIR      82  74  75 S5        30.08R

...CSRA, Central and far Southeast Georgia...

CITY           SKY/WX    TMP DP  RH WIND       PRES   REMARKS
Thomson        MOCLDY    81  76  85 SW3       30.08S
Augusta-Bush   FAIR      84  73  69 S3        30.06S HX  90
6HR MIN TEMP:  79; 6HR MAX TEMP:  88; 6HR PCP:  0.05;

Augusta-Daniel FAIR      85  72  65 S6        30.08S HX  91
Swainsboro     FAIR      82  73  74 S3        30.10R
Vidalia        FAIR      82  72  69 CALM      30.09R
Eastman        FAIR      81  75  84 CALM      30.12R
Hazlehurst     FAIR      84  73  68 CALM      30.08R HX  91
Alma           FAIR      83  74  74 S3        30.08R
6HR MIN TEMP:  83; 6HR MAX TEMP:  90;

Waycross       FAIR      83  71  66 S5        30.09R
Jesup          FAIR      82  73  74 CALM      30.10R
Baxley         FAIR      81  72  74 S3        30.09R
Brunswick      FAIR      81  76  84 SE7       30.09S
Saint Simons   FAIR      83  75  77 SE7       30.09S HX  90
6HR MIN TEMP:  83; 6HR MAX TEMP:  89;


$$

SCZ027-028-034-036>038-045-046-048>050-GAZ119-141-210100-
...Lake and Supplemental Coastal Observations...

STATION/POSITION TIME  TEMP    WIND        PRES    WAVE   SWELL
                       AIR SEA DIR/SP/G            HT/PER HT/PER/DIR
                 (UTC) (F)     (DEG/KT/KT) (MB)    (FT/S) (FT/S/D)
Winyah Bay       2345   84     180/  8     1019.0S
Lake Murray      2330   80     320/  1/  4 1017.6S
Chrlstn Harbor   2342   84 86  160/  8/ 10 1019.1F
ACE Basin NERRS  2345   83     140/  2     1019.0S
Fort Pulaski     2342   84 85  160/  6/  9 1019.4F
Sapelo Island    0000   83     140/  5     1019.0

$$

ANZ835-935-AMZ111-154-330-350-352-354-370-450-454-472-210100-
...C-MAN and Buoy Observations...

STATION/POSITION TIME  TEMP    WIND        PRES    WAVE   SWELL
                       AIR SEA DIR/SP/G            HT/PER HT/PER/DIR
                 (UTC) (F)     (DEG/KT/KT) (MB)    (FT/S) (FT/S/D)
Buoy 41004       0010   84 83  150/ 10/ 12 1019.2
Buoy 41008       2350   82 83  120/ 10/ 12 1019.0S   1/ 7   2/120/ 7
Folly Beach CMAN 0000   83     180/ 14/ 15 1019.6F
Capers Nearshore 0008   84 86  180/ 12/ 16 1019.3S
Fripp Nearshore  0008   83 85  180/ 12/ 16 1018.8F


STATION/POSITION TIME  TEMP    WIND        PRES    WAVE   SWELL
                       AIR SEA DIR/SP/G            HT/PER HT/PER/DIR
                 (UTC) (F)     (DEG/KT/KT) (MB)    (FT/S) (FT/S/D)
5E St. Marys GA  0000      83                N/A     2/ 9
Frying Pan Buoy  0010   84 84  190/ 12/ 14 1019.4
Buoy 41025       0010   83 83  220/ 14/ 17 1018.1
Cape Lookout NC  0000   83     220/  8/ 11 1018.6R
Buoy 41002       0010   83     150/  8/ 10 1020.8
Buoy 41010       0010   85 87  110/ 10/ 12 1020.0
St Augustine FL  0000   82 84  130/  5/  6 1019.6R


$$



USA.gov is the U.S. government's official web portal to all federal, state and local government web resources and services.